Location: Newark
(46.1292°N, 1.0086°W)
Time: 00:00:00
(UTC+00:00)

OTV 5 (USA 277) - Visible Passes

Search period start: 17 October 2019 00:00
Search period end: 27 October 2019 00:00
Orbit: 310 x 324 km, 54.5° (Epoch: 08 October)

Date Brightness Start Highest point End Pass type
(mag) Time Alt. Az. Time Alt. Az. Time Alt. Az.
17 Oct ? 04:21:37 23° NE 04:21:37 23° NE 04:23:35 10° ENE visible
18 Oct ? 04:36:01 42° NNE 04:36:01 42° NNE 04:38:37 10° ESE visible
19 Oct ? 04:50:31 81° WSW 04:50:35 82° SW 04:53:19 10° SE visible
20 Oct ? 05:05:08 31° SW 05:05:08 31° SW 05:07:31 10° SSE visible
21 Oct ? 05:19:54 13° SW 05:19:54 13° SW 05:20:47 10° SSW visible
